Northolt, United Kingdom

10:45 PM BST on July 25, 2017 (GMT +0100)
Northolt Air Base

Weather History for EGWU - December, 2012

Change the Weather History Date:

Sunday, December 2, 2012

  Actual Average Record
Temperature  
Mean Temperature 33 °F -  
Max Temperature 42 °F 44 °F 57 °F (2015)
Min Temperature 24 °F 36 °F 24 °F (2012)
Degree Days  
Heating Degree Days 32    
Moisture  
Dew Point 29 °F    
Average Humidity 86    
Maximum Humidity 100    
Minimum Humidity 58    
Precipitation  
Precipitation 0.02 in - - ()
Sea Level Pressure  
Sea Level Pressure 30.00 in    
Wind  
Wind Speed 3 mph ()    
Max Wind Speed 7 mph    
Max Gust Speed -    
Visibility 9.1 miles    
Events      
Averages and records for this station are not official NWS values.
T = Trace of Precipitation, MM = Missing Value Source: Averaged Metar Reports

Daily Weather History Graph

Daily Weather History Graph

Search for Another Location

Airport or City:

Trip Planner

Search our weather history database for the weather conditions in past years. The results will help you decide how hot, cold, wet, or windy it might be!

Date:

Astronomy

Dec. 02, 2012 Rise Set
Actual Time 7:47 AM GMT 3:55 PM GMT
Civil Twilight 7:07 AM GMT 4:34 PM GMT
Nautical Twilight 6:25 AM GMT 5:16 PM GMT
Astronomical Twilight 5:45 AM GMT 5:57 PM GMT
Moon 7:39 PM GMT (12/2) 10:18 AM GMT (12/2)
Length of Visible Light 9h 26m
Length of Day
8h 08m
Waning Gibbous, 87% of the Moon is Illuminated
Dec 2
Waning Gibbous
Dec 6
Last Quarter
Dec 13
New
Dec 20
First Quarter
Dec 28
Full

Hourly Weather History & Observations

Time (GMT) Temp. Windchill Dew Point Humidity Pressure Visibility Wind Dir Wind Speed Gust Speed Precip Events Conditions
12:50 AM 30.2 °F 23.4 °F 28.4 °F 93% 29.98 in - West 6.9 mph - N/A   Clear
1:50 AM 28.4 °F 22.2 °F 26.6 °F 93% 29.98 in 6.2 mi West 5.8 mph - N/A   Unknown
2:50 AM 29 °F - 28 °F 93% 30.01 in 14 mi West 3.5 mph - -  
2:50 AM 28.4 °F 24.6 °F 28.4 °F 100% 29.98 in 6.2 mi West 3.5 mph - N/A   Unknown
3:50 AM 28.4 °F 22.2 °F 28.4 °F 100% 29.98 in 6.2 mi West 5.8 mph - N/A   Unknown
4:50 AM 28.4 °F 23.3 °F 26.6 °F 93% 29.98 in 6.2 mi West 4.6 mph - N/A   Unknown
5:50 AM 26 °F - 24 °F 89% 30.01 in 10 mi WSW 1.2 mph - -  
5:50 AM 24.8 °F - 24.8 °F 100% 29.98 in 6.2 mi WSW 1.2 mph - N/A   Unknown
6:50 AM 24.8 °F 20.5 °F 23.0 °F 93% 30.01 in - West 3.5 mph - N/A   Clear
7:50 AM 24.8 °F - 23.0 °F 93% 30.01 in - West 2.3 mph - N/A   Clear
8:50 AM 29 °F - 28 °F 97% 30.04 in 16 mi WSW 3.5 mph - -   Scattered Clouds
8:50 AM 30.2 °F 26.7 °F 28.4 °F 93% 30.04 in - WSW 3.5 mph - N/A   Clear
9:50 AM 33.8 °F 30.8 °F 30.2 °F 87% 30.04 in - SW 3.5 mph - N/A   Clear
10:50 AM 35.6 °F 30.7 °F 30.2 °F 81% 30.04 in - WSW 5.8 mph - N/A   Clear
11:50 AM 38 °F - 30 °F 65% 30.04 in 19 mi WSW 4.6 mph - -   Scattered Clouds
11:50 AM 39.2 °F 35.9 °F 30.2 °F 70% 30.04 in - WSW 4.6 mph - N/A   Clear
12:50 PM 41.0 °F 37.1 °F 30.2 °F 65% 30.04 in - West 5.8 mph - N/A   Clear
1:50 PM 41.0 °F 37.1 °F 28.4 °F 61% 30.01 in - WNW 5.8 mph - N/A   Clear
2:50 PM 40 °F - 30 °F 58% 30.03 in 22 mi WSW 3.5 mph - -   Scattered Clouds
2:50 PM 39.2 °F 37.0 °F 30.2 °F 70% 30.01 in - WSW 3.5 mph - N/A   Clear
3:50 PM 37.4 °F - 30.2 °F 75% 30.01 in - WSW 1.2 mph - N/A   Clear
4:50 PM 32.0 °F - 28.4 °F 87% 30.01 in - SSW 1.2 mph - N/A   Clear
5:50 PM 31 °F - 29 °F 88% 30.02 in 16 mi Calm Calm - -   Scattered Clouds
5:50 PM 32.0 °F - 28.4 °F 87% 30.01 in - Calm Calm - N/A   Clear
6:50 PM 32.0 °F - 30.2 °F 93% 30.01 in - Calm Calm - N/A   Clear
7:50 PM 32.0 °F - 30.2 °F 93% 29.98 in 6.2 mi Calm Calm - N/A   Overcast
8:50 PM 34 °F - 31 °F 85% 30.00 in 11 mi SE 1.2 mph - -   Overcast
8:50 PM 33.8 °F - 32.0 °F 93% 29.98 in 6.2 mi SE 1.2 mph - N/A   Overcast
9:50 PM 35.6 °F - 32.0 °F 87% 29.98 in 6.2 mi South 1.2 mph - N/A   Overcast
10:50 PM 37.4 °F 34.9 °F 32.0 °F 81% 29.95 in 6.2 mi South 3.5 mph - N/A   Mostly Cloudy
11:50 PM 36 °F - 33 °F 87% 29.95 in 7 mi South 3.5 mph - -   Mostly Cloudy
11:50 PM 37.4 °F 34.9 °F 33.8 °F 87% 29.95 in 6.2 mi South 3.5 mph - N/A   Mostly Cloudy